This is the latest recevied weather packets stored in our database for station/object DO7ZT-13. If no packets are shown the sender has not sent any weather packets the latest 10 day(s).
| Time | Temp. | Humidity | Pressure | Rain* | Wind** | Luminosity | Snow |
|---|---|---|---|---|---|---|---|
| 1777860008 | 16.11° C | 47% | 1012.7 hPa | 0 mm | 0.89 m/s, 180° | - | - |
| 1777859732 | 16.11° C | 47% | 1012.7 hPa | 0 mm | 1.34 m/s, 194° | - | - |
| 1777859420 | 16.11° C | 47% | 1012.7 hPa | 0 mm | 1.34 m/s, 190° | - | - |
| 1777859107 | 16.11° C | 47% | 1012.5 hPa | 0 mm | 1.34 m/s, 174° | - | - |
| 1777858820 | 16.11° C | 47% | 1012.5 hPa | 0 mm | 0.89 m/s, 180° | - | - |
| 1777858507 | 16.11° C | 46% | 1012.5 hPa | 0 mm | 1.34 m/s, 198° | - | - |
| 1777858220 | 17.22° C | 46% | 1012.5 hPa | 0 mm | 1.34 m/s, 165° | - | - |
| 1777857907 | 17.22° C | 46% | 1012.5 hPa | 0 mm | 1.34 m/s, 156° | - | - |
| 1777857620 | 17.22° C | 46% | 1012.5 hPa | 0 mm | 0.89 m/s, 202° | - | - |
| 1777857307 | 17.22° C | 45% | 1012.4 hPa | 0 mm | 0.89 m/s, 204° | - | - |
| 1777857020 | 17.22° C | 44% | 1012.4 hPa | 0 mm | 0.89 m/s, 178° | - | - |
| 1777856708 | 17.22° C | 44% | 1012.4 hPa | 0 mm | 1.34 m/s, 138° | - | - |
| 1777856420 | 17.22° C | 44% | 1012.1 hPa | 0 mm | 2.68 m/s, 180° | - | - |
| 1777856108 | 17.22° C | 44% | 1012.1 hPa | 0 mm | 0.89 m/s, 166° | - | - |
| 1777855820 | 17.22° C | 44% | 1012.1 hPa | 0 mm | 1.79 m/s, 182° | - | - |
| 1777855507 | 17.22° C | 43% | 1012.2 hPa | 0 mm | 1.34 m/s, 180° | - | - |
| 1777855220 | 17.22° C | 44% | 1012.2 hPa | 0 mm | 0.89 m/s, 172° | - | - |
| 1777854908 | 17.22° C | 44% | 1012.2 hPa | 0 mm | 1.79 m/s, 209° | - | - |
| 1777854620 | 17.22° C | 44% | 1012.2 hPa | 0 mm | 1.34 m/s, 223° | - | - |
| 1777854308 | 17.22° C | 44% | 1012.2 hPa | 0 mm | 0.89 m/s, 210° | - | - |
| 1777854020 | 17.22° C | 44% | 1012.2 hPa | 0 mm | 0.89 m/s, 200° | - | - |
| 1777853420 | 17.22° C | 44% | 1012.1 hPa | 0 mm | 0.45 m/s, 204° | - | - |
| 1777853107 | 17.22° C | 44% | 1012.1 hPa | 0 mm | 0.45 m/s, 230° | - | - |
| 1777852507 | 17.22° C | 44% | 1012 hPa | 0 mm | 0.89 m/s, 252° | - | - |
| 1777852232 | 17.78° C | 43% | 1012 hPa | 0 mm | 1.34 m/s, 258° | - | - |
* Rain latest hour (hover to see other rain measurements)
** Current wind speed in m/s (hover to see current wind gust speed)